Wind_Speed
45 45 44 43 42 42 40 39 38 38 37 36 35 34 33 31 30 29 28 27 26 24 23 21 20 19 18 17 16 15 13 13 13 12 13 17 23 30 36 40 44 47 48 48 47 46 44 43 42 41 41 41 40 40 39 38 37 36 35 34 33 32 31 30 29 28 28 27 26 26 26 26 26 26 27 28 29 28 28 30 31 33 35 35 35 34 33 33
47 47 46 45 44 44 43 42 41 40 39 38 37 36 35 34 33 32 31 30 29 28 26 24 23 22 21 20 19 18 16 16 17 14 12 14 18 24 30 35 40 44 47 48 49 48 47 46 45 43 42 42 42 42 41 40 39 38 37 35 34 34 32 31 30 30 30 29 29 28 28 28 28 28 28 29 29 28 29 31 33 34 34 34 33 31 31 31
49 49 48 47 46 46 45 44 43 42 41 40 39 38 38 37 36 35 34 33 32 31 29 27 25 25 24 23 21 20 19 19 20 18 15 16 16 18 22 27 34 39 44 47 49 50 49 49 47 46 44 44 44 44 43 42 41 39 38 36 35 35 34 32 31 31 31 30 30 30 29 30 30 30 30 30 29 29 31 32 33 34 33 32 30 29 29 30
51 50 49 49 48 48 47 46 45 44 44 43 42 41 40 39 38 37 37 35 35 34 33 31 29 27 26 26 25 23 22 21 23 21 18 19 19 17 17 20 26 31 37 42 46 49 51 51 50 48 47 47 46 45 45 43 42 41 40 38 36 36 35 34 32 32 33 32 32 32 31 32 32 32 32 31 30 31 32 33 33 32 31 29 27 27 28 29
52 51 51 50 50 50 49 48 48 47 46 45 44 43 42 41 41 40 39 38 38 38 37 35 32 31 29 29 28 27 25 23 26 24 20 21 22 20 19 19 21 25 30 35 40 45 49 51 52 51 50 50 49 48 46 44 44 43 41 39 38 38 37 36 35 35 35 35 35 34 34 34 34 33 32 31 31 32 32 32 31 30 27 26 25 26 26 27
52 52 52 52 52 51 51 51 50 50 49 48 47 46 45 44 43 43 42 41 41 40 40 39 37 34 33 32 30 30 28 26 29 28 23 22 24 24 23 22 22 22 24 27 33 39 43 47 50 52 53 53 52 50 47 47 46 45 44 43 41 41 40 39 38 37 37 38 37 36 36 36 36 34 33 33 33 33 32 31 30 28 25 24 24 24 25 25
54 54 54 54 54 54 53 53 53 52 51 51 50 49 48 47 46 45 44 44 43 43 43 42 41 39 36 35 33 32 30 30 31 31 27 25 26 28 27 26 24 23 22 23 27 31 36 42 45 49 52 54 53 52 51 50 49 49 49 47 45 44 43 42 42 41 40 40 40 39 39 38 37 36 35 34 34 33 32 30 29 25 23 23 22 23 23 23
56 56 56 57 57 56 56 56 55 55 54 53 52 51 50 49 49 48 47 47 46 46 45 45 45 43 40 38 37 35 33 34 34 33 32 29 28 30 31 29 27 25 23 23 25 26 30 34 38 43 47 49 51 53 53 53 52 52 52 50 48 47 46 45 44 44 43 43 42 41 41 40 38 37 35 35 34 32 31 29 26 23 22 21 21 22 21 20
58 59 59 59 59 59 59 58 58 57 56 56 55 54 53 52 51 51 50 49 48 48 48 48 47 46 45 42 40 38 37 37 36 36 35 33 31 32 33 32 30 29 27 27 26 26 26 26 30 35 38 42 47 50 52 54 54 53 53 52 51 49 48 47 46 45 45 45 44 43 42 41 39 37 35 35 34 31 29 26 21 20 21 20 19 20 20 19
60 60 61 61 61 61 61 61 60 59 59 58 57 57 56 55 54 53 53 52 51 50 50 50 50 49 48 46 44 41 40 41 39 38 38 37 35 35 35 34 33 32 31 30 29 29 25 23 24 27 30 36 41 44 47 50 50 50 52 52 52 51 50 49 47 46 45 44 44 43 42 41 39 37 35 35 34 30 27 22 19 20 20 18 18 19 19 17
61 61 61 62 62 62 62 62 62 61 61 60 60 59 58 58 57 56 55 55 54 53 53 52 52 52 51 49 47 44 44 44 42 41 41 40 38 37 36 36 35 34 33 33 33 31 27 24 24 24 27 29 33 37 39 42 44 46 48 49 50 50 49 48 47 46 44 43 42 42 42 40 39 37 35 34 32 28 24 19 18 19 18 15 16 18 17 15
60 61 62 62 62 62 63 63 62 62 62 61 61 61 60 60 60 59 58 57 57 56 55 54 54 54 54 53 49 46 47 47 46 45 43 42 41 39 38 38 38 36 36 36 36 34 30 27 25 27 27 25 27 29 30 32 36 39 41 43 45 46 46 45 44 43 42 41 41 41 40 39 38 35 33 31 29 25 20 18 18 19 16 14 15 16 16 14
61 61 62 62 63 63 63 63 63 63 63 62 62 62 62 62 62 61 61 60 59 58 57 57 57 56 57 56 51 48 50 50 49 48 45 43 42 42 41 40 40 39 39 38 38 37 34 30 29 29 27 26 26 24 22 25 28 31 35 37 40 42 43 43 41 40 39 39 39 39 38 37 35 32 30 28 25 21 18 18 19 18 14 12 14 15 15 13
63 63 63 63 64 64 63 64 64 63 63 63 63 62 62 63 63 63 62 62 61 60 60 59 59 58 59 59 54 50 52 53 53 50 46 44 44 45 44 43 42 42 42 40 39 39 37 34 33 31 29 29 28 23 20 22 24 26 28 31 34 37 38 38 38 37 36 37 37 36 36 35 32 29 27 25 22 19 18 19 19 16 12 11 13 13 13 13
67 67 67 66 66 66 66 65 66 65 64 64 64 63 63 63 64 64 64 63 62 62 61 61 61 60 62 62 56 53 55 55 54 51 48 47 47 48 48 46 45 45 44 42 41 41 39 37 36 34 34 32 29 25 22 22 23 23 24 26 29 30 31 32 33 33 33 34 33 32 32 31 29 27 25 22 20 19 19 19 18 15 11 11 11 11 12 12
71 71 71 71 70 70 70 69 69 69 67 67 66 65 65 64 65 65 65 65 63 62 62 62 62 62 64 65 59 55 57 57 56 53 52 52 51 50 51 49 48 48 47 45 43 42 40 40 40 39 37 32 30 29 25 23 25 24 24 24 24 24 25 27 28 29 29 30 29 28 29 28 26 24 23 21 20 19 19 19 17 13 11 10 10 10 11 11
76 76 76 75 75 74 74 73 73 73 72 71 70 68 67 67 67 67 67 66 64 62 63 63 64 64 66 67 62 58 58 60 58 56 56 55 53 52 52 52 52 51 49 46 44 43 42 43 43 42 39 35 34 33 28 26 30 30 27 25 23 22 21 23 24 24 26 26 25 25 25 25 24 23 22 22 21 20 19 18 15 12 10 10 9 9 10 11
80 80 81 81 80 79 79 78 78 77 76 75 74 72 71 70 70 71 71 68 65 64 64 64 65 66 67 68 65 61 60 61 60 59 60 59 56 54 54 54 54 52 50 47 46 45 45 46 45 43 41 39 37 35 33 35 37 34 28 24 22 19 19 21 21 21 22 22 20 21 23 24 23 23 23 22 21 20 19 18 15 12 10 9 8 8 10 10
81 82 83 84 83 83 84 83 82 82 81 80 79 77 76 75 74 75 75 71 68 67 66 66 66 67 69 69 67 64 61 61 62 62 63 62 58 56 56 55 54 53 51 49 49 48 48 48 46 43 43 44 43 42 42 42 40 34 28 25 22 20 20 20 18 18 20 19 19 21 23 23 23 23 23 22 22 21 19 18 15 12 10 8 8 8 9 10
83 83 84 85 85 85 85 86 85 85 86 85 84 82 81 80 78 79 80 75 72 72 70 69 69 71 72 71 68 66 64 62 62 64 66 65 61 59 58 56 55 54 52 52 52 51 50 48 45 47 50 50 49 48 47 44 40 36 30 27 25 23 23 22 19 20 20 19 20 22 23 24 24 25 24 23 23 21 19 17 15 13 11 9 8 8 9 10
84 85 86 87 86 86 86 87 86 86 87 87 87 86 85 84 84 84 84 80 77 76 74 73 73 74 75 73 68 67 66 64 64 65 68 67 64 61 59 58 56 55 56 57 55 53 50 46 47 52 54 53 51 49 48 47 43 39 34 31 29 27 27 25 23 23 22 22 21 22 23 25 26 26 25 24 22 21 19 17 15 14 12 9 7 7 9 10
83 84 85 87 88 88 88 88 88 87 88 88 88 87 87 87 87 88 89 87 82 79 79 77 77 77 78 76 71 69 69 68 68 68 68 68 66 64 62 60 59 59 62 61 57 53 48 47 53 57 56 54 52 51 51 50 47 43 39 35 33 32 30 28 27 26 26 25 23 23 25 26 27 27 26 23 22 21 19 17 16 15 13 10 8 7 8 9
81 83 84 86 88 87 88 89 90 90 90 89 89 88 88 88 89 90 91 91 88 84 83 82 82 81 81 80 75 71 71 73 73 71 70 69 68 68 67 64 62 64 64 61 58 54 50 54 60 60 57 56 55 53 53 53 50 46 43 40 39 38 35 32 32 30 31 30 28 27 27 27 26 26 25 23 22 23 20 19 18 16 14 11 8 8 7 8
81 82 83 85 87 87 87 88 89 90 90 90 91 91 90 90 90 90 91 92 92 89 88 87 86 86 84 84 80 75 75 77 77 76 74 72 71 71 70 68 66 66 65 62 61 57 56 61 63 59 58 58 57 56 55 53 51 49 47 46 45 44 41 39 37 35 35 34 30 29 28 26 25 26 27 25 23 24 22 20 19 17 15 12 10 9 8 8
81 83 84 85 87 88 87 88 88 89 89 90 91 92 92 92 92 92 92 92 92 91 92 91 90 90 89 88 85 81 79 81 82 81 77 75 75 74 73 71 69 67 66 65 63 60 61 65 62 59 60 59 58 56 55 54 53 52 50 51 51 50 47 43 40 38 37 35 33 31 29 27 27 29 30 27 24 25 24 22 20 18 16 13 11 10 9 9
81 83 84 84 86 88 88 88 89 89 89 89 90 91 91 92 93 94 94 94 93 92 93 93 92 92 91 91 89 86 84 85 87 85 80 79 79 78 76 74 71 70 69 68 66 63 64 66 63 61 60 59 58 57 56 56 55 53 53 56 57 55 51 46 43 41 39 39 38 35 32 31 29 30 33 29 26 26 26 24 21 19 17 14 12 12 10 10
80 81 83 83 84 85 86 87 89 89 90 90 90 90 91 91 92 93 94 96 95 95 95 94 94 94 92 92 92 91 90 91 91 89 85 83 82 80 78 75 73 73 72 71 67 63 66 67 63 62 61 60 58 57 59 59 57 56 59 60 59 56 54 50 47 45 43 44 41 37 35 34 31 31 34 32 27 26 26 26 23 22 19 15 14 14 12 11
78 79 81 82 82 82 83 84 86 87 88 90 90 90 90 91 92 92 93 95 95 97 97 96 97 96 93 93 93 93 94 95 95 93 89 86 85 82 80 78 76 76 77 74 67 65 69 69 65 66 65 62 60 61 63 61 60 63 65 62 60 59 58 54 50 48 48 48 42 38 38 36 32 33 35 33 28 26 28 29 27 24 21 16 16 16 14 13
76 77 79 81 81 81 81 81 82 82 83 86 88 89 89 90 91 92 93 94 94 95 97 98 99 98 96 95 94 94 95 97 99 97 93 91 90 86 83 82 81 81 81 77 71 71 74 72 70 71 67 64 65 67 67 63 62 67 67 63 62 62 61 56 53 52 52 49 43 41 40 37 35 35 34 32 29 29 31 32 30 27 22 19 18 17 16 15
73 75 76 79 80 80 79 80 80 80 80 81 82 85 86 88 90 91 92 93 93 95 97 98 99 99 99 98 97 95 95 97 100 100 97 96 95 92 89 88 88 86 83 80 76 75 76 76 75 72 68 67 69 71 69 65 67 71 69 65 64 63 62 58 54 55 54 47 44 44 43 40 38 35 32 31 32 35 36 36 33 29 25 21 20 19 17 16
70 71 73 75 76 77 77 78 79 79 79 79 79 80 82 84 86 88 90 92 93 95 96 98 98 99 100 100 100 99 97 97 100 101 100 99 99 98 96 96 94 90 86 82 79 78 79 80 76 72 71 71 72 73 70 68 71 72 69 66 66 65 64 60 56 55 50 44 44 47 46 43 39 35 33 32 35 38 39 39 36 31 27 24 22 20 19 18
67 68 69 70 71 72 73 74 75 76 77 78 79 79 78 79 81 84 87 90 92 93 96 98 98 98 99 99 100 101 100 100 101 101 102 102 101 102 101 100 96 92 88 84 81 81 81 81 77 74 74 73 73 73 71 70 71 71 69 67 67 66 64 60 56 53 47 43 45 48 46 42 37 36 35 36 38 41 43 43 39 33 29 26 23 22 21 20
65 65 65 66 67 67 68 69 71 72 73 75 77 78 78 77 77 78 82 86 89 91 94 97 98 99 99 99 100 101 103 104 103 103 103 103 102 102 102 100 97 94 91 88 86 85 84 83 80 76 75 74 73 73 71 69 70 70 68 67 65 64 62 58 55 52 48 45 48 50 47 39 36 37 38 40 44 46 46 44 39 35 31 27 25 23 23 22
62 62 61 61 61 62 64 64 65 67 68 71 73 76 77 78 76 76 78 82 86 88 92 95 97 99 99 99 100 101 103 104 106 105 105 105 103 103 102 101 101 98 95 94 92 89 87 85 81 76 74 74 73 73 71 70 71 71 69 68 66 64 60 57 56 55 51 50 51 52 47 39 37 42 45 47 49 49 46 44 40 37 33 30 27 24 24 24
59 59 58 57 56 56 58 60 61 62 63 65 68 71 74 76 76 76 76 78 81 84 88 92 96 98 99 100 100 101 102 104 106 106 107 107 106 104 103 103 102 101 99 99 97 93 89 86 83 80 79 78 76 75 75 75 74 72 72 70 65 62 61 61 61 59 57 55 55 53 48 43 44 49 51 51 50 48 46 44 42 39 36 32 28 26 26 26
58 57 56 54 52 51 52 54 56 57 59 61 63 66 70 72 74 75 75 76 78 81 84 89 93 96 98 100 101 102 103 104 106 107 107 108 108 107 105 104 103 102 101 101 99 96 91 88 87 87 85 82 79 78 79 78 75 74 74 68 62 64 67 67 65 62 60 57 55 53 50 48 49 52 53 51 48 47 46 45 43 41 38 34 30 28 28 27
57 57 54 52 49 48 48 49 51 52 54 56 58 61 65 67 69 72 74 75 76 78 82 86 89 93 97 99 100 102 103 105 106 107 107 107 108 109 107 106 104 102 101 101 100 97 93 90 91 89 85 83 82 83 84 81 79 79 75 69 68 73 73 69 66 65 61 56 54 54 52 49 49 51 52 50 47 46 45 45 44 43 39 35 33 31 30 29
55 55 53 49 47 47 47 47 47 48 50 51 52 55 59 61 64 67 70 73 75 76 80 83 86 90 94 97 99 101 104 106 107 107 108 107 108 109 109 108 107 104 102 101 99 97 94 93 94 92 87 86 87 87 87 85 83 81 76 74 77 78 73 68 66 63 59 56 56 57 54 50 48 49 52 51 48 46 46 45 45 43 39 36 35 33 32 32
52 52 51 47 45 45 45 45 45 45 47 48 48 50 54 55 58 62 66 69 71 74 78 80 83 87 91 95 98 101 103 106 107 108 108 109 108 108 108 109 108 107 105 102 99 97 94 94 96 96 92 91 91 91 88 85 82 80 79 79 80 77 73 71 68 64 61 60 60 59 56 51 49 52 55 54 50 49 48 46 46 43 39 38 38 36 34 34
49 51 49 45 42 42 43 43 43 44 44 45 45 46 49 50 53 56 60 63 67 70 74 77 80 84 88 92 96 99 102 104 107 109 109 109 109 109 108 108 108 108 106 104 101 98 95 94 97 98 95 94 95 92 87 83 82 81 80 80 79 76 74 72 70 68 66 64 62 62 58 53 52 57 59 57 54 52 50 48 47 45 41 41 41 40 38 37
47 49 49 46 42 41 40 41 42 42 42 43 43 44 45 46 49 51 54 57 60 65 69 74 78 81 85 90 94 97 100 102 106 109 110 110 110 109 109 108 107 107 107 106 103 99 96 95 97 99 97 97 96 92 87 86 86 84 83 81 79 77 76 75 72 69 67 64 63 62 58 55 57 62 63 60 56 53 51 49 48 46 43 42 43 44 42 40
45 45 46 46 44 43 41 40 40 41 40 40 41 43 43 42 44 47 50 51 53 58 64 69 74 77 82 87 92 95 98 101 105 108 110 110 111 110 109 108 107 107 106 106 105 102 98 96 97 99 97 96 96 93 90 90 89 87 85 83 82 81 80 77 72 68 66 64 63 62 58 58 63 64 63 60 57 54 52 50 48 47 45 44 46 48 47 44
44 42 43 43 43 43 42 40 40 39 38 38 38 40 41 40 40 42 46 47 48 52 58 63 68 73 78 83 88 94 98 100 103 107 109 110 111 110 109 108 108 107 106 106 105 103 101 97 98 99 98 96 97 96 94 93 92 91 89 87 86 84 81 77 72 70 71 67 65 62 59 62 65 64 63 62 58 55 54 51 50 48 47 47 48 50 50 49
43 41 41 41 41 42 42 41 40 38 37 35 35 36 37 38 38 39 41 44 45 47 52 58 64 69 73 78 85 91 97 100 102 105 108 110 110 111 110 109 108 107 106 105 104 103 102 100 99 101 101 100 100 101 99 98 96 95 92 91 89 85 82 79 77 78 76 72 69 65 63 67 68 64 64 63 59 57 55 53 51 49 49 50 50 51 52 52
41 40 40 40 40 41 42 41 41 40 38 36 34 34 34 34 35 36 37 40 42 44 47 52 59 65 69 74 80 87 94 99 101 104 106 109 110 110 110 109 108 107 106 105 103 102 102 101 101 103 104 103 103 103 101 100 99 97 94 91 89 86 84 82 81 80 76 72 70 66 66 70 70 67 66 64 60 58 56 53 52 51 52 53 52 52 53 53
39 39 40 40 39 38 39 39 40 40 39 37 35 34 33 32 32 33 34 36 39 41 43 48 54 59 64 69 75 82 89 95 100 103 105 108 109 110 110 110 108 107 106 104 103 101 100 101 102 104 105 105 103 101 99 98 97 95 93 90 89 87 85 83 82 79 74 72 70 65 68 73 72 67 67 66 63 60 57 55 54 53 54 54 54 53 53 53
38 37 37 39 39 37 35 35 36 36 36 36 36 33 32 31 30 31 33 33 35 38 41 44 49 55 59 64 70 77 83 89 96 101 104 107 108 108 109 110 108 106 105 104 104 102 100 100 101 103 106 105 103 100 98 96 95 93 91 90 89 88 87 86 82 76 73 72 68 66 71 75 71 68 68 67 64 61 59 58 57 57 57 57 56 55 54 53
38 36 35 36 37 37 36 35 34 34 34 34 34 33 31 30 29 29 30 32 33 35 38 41 45 50 55 61 67 73 78 83 90 97 102 106 108 107 108 109 108 106 105 104 104 102 100 99 99 102 105 106 104 101 99 96 95 92 91 90 90 90 89 86 81 76 74 72 68 69 74 75 72 70 69 68 66 62 59 60 59 58 57 57 57 56 55 54
38 37 35 34 35 36 36 36 35 35 34 34 33 32 30 28 28 27 28 29 31 33 35 38 41 46 52 57 63 67 72 77 84 92 99 104 106 106 106 107 107 106 104 104 104 102 100 99 98 99 104 106 105 103 100 97 96 94 92 92 92 90 88 84 80 78 76 72 71 74 76 75 74 72 71 69 66 62 60 60 59 56 55 55 55 54 53 53
37 36 35 34 34 35 36 37 37 37 37 36 34 32 30 27 25 25 26 27 28 30 32 34 38 42 47 52 58 63 68 73 79 86 93 99 103 105 105 105 105 105 104 103 103 102 100 99 97 98 101 105 106 105 102 99 98 97 96 95 92 88 86 83 81 80 79 76 75 76 75 75 76 74 71 69 65 62 60 60 58 56 54 53 53 52 52 52
36 36 35 34 35 36 37 39 39 38 37 36 34 32 29 26 23 22 24 24 24 27 30 32 34 38 42 47 54 61 65 69 74 80 86 93 98 101 103 104 104 103 103 103 103 101 100 99 97 97 100 104 105 105 103 101 101 100 99 95 90 87 86 85 83 82 80 79 77 76 74 75 77 75 71 69 65 62 60 59 59 57 53 52 52 52 52 52
34 34 35 35 35 36 38 40 41 39 38 37 34 31 28 26 23 20 21 22 21 23 27 30 31 34 39 44 50 56 61 65 69 74 79 86 92 96 100 102 102 102 103 103 102 101 100 99 97 97 100 102 103 103 104 104 104 102 100 95 92 90 90 88 85 82 80 80 79 76 74 75 77 75 72 68 65 62 59 58 58 56 53 52 52 53 54 53
Wind_Direction
256 256 257 257 258 257 258 259 260 260 261 261 261 261 260 259 259 259 259 258 256 254 250 246 240 237 237 239 238 231 225 229 233 223 216 219 219 220 221 222 224 224 225 225 226 227 227 229 230 229 229 230 230 231 231 232 233 234 235 236 239 240 242 245 248 251 255 258 261 264 266 268 272 276 280 285 289 289 292 298 303 308 314 317 318 320 323 325
256 257 257 257 257 257 257 258 259 259 259 260 260 260 260 259 259 259 259 259 258 255 251 248 245 240 237 237 238 237 231 229 232 228 226 227 221 219 221 222 225 225 226 227 227 228 228 229 230 230 231 232 233 233 233 232 233 234 235 236 238 241 242 244 247 251 254 258 261 263 266 270 273 276 280 284 286 287 291 298 304 310 314 316 317 320 323 327
257 257 257 257 257 257 257 258 258 258 258 258 259 260 260 259 259 259 259 259 259 257 253 250 247 244 240 238 237 237 236 234 234 228 229 235 228 222 222 223 225 226 227 227 228 229 230 230 231 231 231 233 234 235 235 235 234 234 235 235 237 241 243 244 248 252 255 258 261 264 267 270 273 275 278 281 283 286 291 298 303 309 313 314 316 320 324 327
257 257 257 257 257 257 257 257 258 258 258 257 257 258 259 259 258 258 258 258 259 259 256 252 248 246 244 240 237 236 236 238 238 229 224 236 236 228 225 226 226 225 227 228 229 230 231 232 232 233 233 233 235 236 237 238 238 237 237 237 237 241 244 246 249 253 257 260 263 266 268 271 272 275 277 279 282 285 290 297 303 308 312 313 315 320 323 326
258 258 258 257 257 257 257 257 257 257 257 257 257 257 257 258 258 258 257 257 258 259 258 255 251 248 246 243 239 237 235 238 242 233 221 231 239 236 231 230 229 226 226 228 229 230 231 232 233 234 234 235 235 236 237 239 240 240 241 241 240 242 245 248 250 252 256 259 262 265 268 269 271 274 276 279 282 285 291 296 302 308 311 309 313 319 323 327
258 258 257 257 257 257 257 257 258 258 257 257 256 256 256 256 257 257 257 256 256 257 258 257 254 250 248 246 242 239 236 237 242 237 226 227 236 238 235 232 232 229 226 228 230 231 231 232 233 234 235 236 237 237 238 238 240 241 242 243 244 245 247 250 251 253 255 258 260 262 265 267 269 272 274 277 280 284 290 295 301 307 307 306 312 319 324 330
257 257 257 257 257 257 257 257 257 257 257 257 256 256 255 255 256 256 256 256 255 256 256 257 256 253 250 247 245 241 239 238 240 240 232 228 234 237 237 234 233 233 231 232 234 232 232 232 233 235 236 237 238 238 239 239 239 240 241 243 243 245 247 250 252 253 255 256 258 260 262 264 267 269 272 276 279 284 289 294 301 303 301 303 311 319 325 333
257 256 256 256 256 256 256 257 257 257 257 257 256 256 255 255 255 255 255 255 255 255 255 256 256 255 252 249 247 244 242 239 239 242 237 230 233 236 237 236 235 235 235 236 237 235 234 233 234 235 236 238 239 240 240 240 240 240 242 244 244 245 246 248 250 253 254 256 257 259 260 262 264 267 270 273 277 282 287 293 298 296 295 299 310 319 325 334
258 258 257 257 257 257 257 257 257 257 256 256 256 256 255 255 255 254 254 254 254 255 255 255 255 255 253 251 248 247 245 242 238 241 240 233 232 235 236 237 236 234 234 236 238 238 236 235 236 237 238 238 239 239 240 241 241 242 244 246 246 247 247 248 249 251 253 255 257 258 260 261 263 265 268 271 275 279 285 290 291 287 290 297 310 319 323 336
260 259 259 258 258 258 258 257 257 257 257 256 256 255 255 254 254 254 254 254 253 254 254 255 255 255 253 251 249 248 247 244 240 240 241 237 232 234 236 236 236 234 234 235 238 239 238 237 239 240 238 238 238 239 240 241 242 243 244 245 246 247 247 248 248 249 251 253 256 257 259 261 262 264 266 270 273 277 282 284 281 281 287 297 311 316 321 337
261 260 260 259 259 259 258 258 258 257 257 256 255 255 254 254 254 253 253 254 253 253 253 254 255 254 253 251 249 249 248 245 242 240 240 239 235 234 236 236 235 235 234 234 237 239 238 238 240 242 242 241 240 240 240 242 242 242 243 244 245 246 247 247 247 248 249 251 253 256 257 259 261 263 265 269 272 276 278 275 273 277 284 298 310 313 320 338
262 261 261 260 259 259 258 258 257 257 257 256 255 255 254 254 253 253 253 253 253 253 253 253 253 253 253 251 248 249 249 246 244 240 238 240 238 235 236 237 236 234 235 234 236 238 238 237 238 241 244 244 243 241 241 242 242 242 242 243 244 244 245 245 245 247 247 248 250 252 255 257 259 261 263 266 270 272 269 266 268 272 281 297 306 311 320 336
263 262 261 261 260 259 259 258 257 257 256 255 255 254 254 253 253 252 252 252 252 252 252 252 252 252 253 251 248 248 249 247 245 241 237 239 242 238 236 238 237 234 234 234 234 237 237 235 235 239 243 245 245 242 240 241 241 240 240 241 242 242 242 243 243 244 245 246 247 249 252 254 257 259 260 261 263 261 256 259 263 265 276 294 303 311 319 334
263 263 262 261 261 260 259 258 258 257 256 255 254 254 254 253 253 252 251 251 251 251 251 251 251 252 252 251 247 248 249 247 245 242 238 239 243 242 236 236 238 235 233 233 233 235 235 234 234 237 239 242 244 241 238 241 241 239 240 239 240 241 241 242 241 241 242 243 244 247 249 251 253 254 254 254 252 248 248 254 257 260 273 290 301 311 319 332
264 263 262 261 261 260 259 259 258 257 256 255 254 253 253 253 252 252 251 250 249 250 250 250 250 250 252 250 247 247 248 247 245 244 241 238 240 242 238 234 236 236 233 232 232 233 233 234 234 234 234 238 243 241 236 239 243 240 239 239 239 240 240 240 239 238 238 240 241 243 245 247 248 247 245 243 240 238 243 249 252 258 272 287 300 312 318 331
265 264 263 262 261 261 260 259 259 258 256 256 255 254 253 252 252 251 250 249 248 248 249 249 249 249 250 250 247 246 248 247 246 245 243 238 236 239 239 236 234 235 233 231 231 232 232 232 232 232 234 236 239 240 236 236 242 240 236 235 236 236 235 235 235 235 234 235 235 236 238 240 239 237 234 231 231 234 238 244 249 256 269 283 297 310 316 330
265 264 263 262 262 261 261 260 259 258 257 256 255 254 253 252 252 251 250 249 247 247 248 248 248 248 249 249 246 244 246 247 246 245 244 240 236 236 239 238 235 234 234 232 232 232 231 232 231 232 233 233 235 238 236 233 236 236 232 229 230 230 232 233 231 230 230 230 229 229 231 231 227 225 222 221 226 230 234 240 245 251 265 279 292 306 316 329
266 265 264 263 262 261 261 260 259 259 258 257 256 255 254 253 252 252 250 249 247 247 247 247 247 248 248 248 246 243 242 245 246 245 245 242 237 235 237 239 238 235 234 233 232 232 231 232 231 231 231 231 232 234 233 231 233 235 233 229 228 227 229 231 228 226 226 224 221 218 222 223 220 218 215 216 222 226 232 237 241 248 260 274 287 303 317 325
267 266 265 264 263 262 261 260 259 258 258 257 256 255 254 253 252 252 251 249 248 247 246 246 246 247 247 247 246 244 242 242 245 246 245 242 239 236 235 237 239 237 235 234 232 231 230 231 231 231 230 228 228 228 229 232 234 235 234 232 229 223 225 230 226 224 223 216 208 209 215 217 217 217 214 214 219 222 230 236 240 246 254 265 280 301 315 320
268 267 266 265 264 262 261 260 259 258 258 257 256 255 254 254 253 253 252 250 248 248 246 245 246 246 246 246 245 245 243 241 242 244 245 244 240 237 235 235 237 238 236 235 233 231 230 231 231 231 229 226 227 228 231 235 237 235 232 230 229 223 221 222 219 220 220 212 202 203 210 213 214 215 213 215 219 222 228 234 240 246 250 258 274 295 308 313
268 267 266 265 264 263 262 261 260 259 258 257 256 255 254 253 253 253 252 250 248 248 247 246 246 246 246 245 244 244 244 242 241 241 243 244 242 239 236 234 235 237 236 235 232 230 230 231 231 230 230 228 227 228 232 235 236 235 232 229 228 225 221 217 214 216 219 215 204 200 208 214 216 215 213 215 220 224 227 233 240 245 251 257 268 285 298 306
269 268 267 266 265 263 262 261 260 259 258 257 256 255 254 253 252 252 252 251 248 247 247 246 245 246 246 245 243 243 244 243 241 240 241 242 242 240 238 234 233 235 235 234 232 230 229 231 231 230 230 229 228 227 230 233 234 234 232 229 228 226 222 218 214 213 218 217 207 200 207 217 221 219 216 216 222 227 227 231 238 244 252 258 264 274 286 296
270 269 267 266 265 263 262 261 260 259 258 257 256 255 254 253 252 251 252 252 250 247 246 246 245 245 245 245 243 241 242 243 242 240 239 239 240 240 238 234 231 232 234 234 233 230 228 229 230 229 229 229 228 227 228 231 232 232 231 230 228 227 223 220 217 213 215 215 207 200 205 215 224 227 223 218 222 230 230 232 238 244 252 259 264 269 275 285
272 270 268 266 265 264 262 261 260 258 257 256 255 254 253 252 252 251 250 251 250 248 246 245 245 245 245 245 243 240 240 242 242 240 239 238 238 238 237 235 232 231 232 233 232 230 228 230 230 229 230 229 229 228 228 229 230 230 230 229 228 227 223 220 218 215 215 214 208 203 204 211 223 233 231 223 224 233 235 236 239 244 251 258 261 264 268 274
274 271 269 267 265 264 262 260 259 258 256 255 254 253 252 251 250 250 250 249 249 248 247 245 243 243 244 244 243 241 240 241 241 240 238 238 238 237 237 236 234 232 231 231 231 230 231 233 231 229 230 230 230 230 229 229 228 228 229 229 228 227 224 220 219 219 218 216 211 206 204 207 217 229 234 228 226 234 239 240 243 246 250 254 256 259 261 265
276 274 272 269 267 265 263 261 259 258 256 255 253 252 251 250 249 249 248 248 248 247 247 246 244 242 242 243 243 242 240 240 241 240 238 237 237 236 236 235 235 233 231 230 230 230 232 234 232 230 230 230 230 230 230 230 229 228 228 228 228 227 225 221 220 222 222 220 215 207 205 209 214 226 234 231 228 235 241 243 245 247 249 249 251 254 255 257
277 276 274 272 269 267 265 263 261 258 257 255 253 252 251 250 249 248 247 247 246 246 246 246 245 243 241 241 242 242 241 241 241 240 239 238 238 238 237 236 235 235 233 230 229 230 233 235 233 231 230 230 230 230 230 229 228 227 227 228 228 228 227 223 220 222 224 224 220 211 209 211 212 224 235 235 231 236 243 244 245 246 246 245 248 252 252 252
277 276 275 274 272 270 268 266 263 261 258 256 254 252 250 249 248 247 246 246 245 245 244 244 244 244 242 240 239 240 241 241 241 240 239 239 238 238 238 237 236 236 235 232 228 229 232 232 231 231 229 228 228 228 228 227 227 228 227 227 228 229 228 224 221 222 225 227 225 218 217 215 212 221 233 238 236 237 243 245 243 243 243 242 243 247 250 251
278 276 275 274 273 272 270 269 267 264 261 258 256 253 251 249 248 247 246 245 244 244 244 243 242 243 242 241 239 238 238 240 241 240 238 238 237 236 236 236 236 235 235 233 228 228 230 230 229 229 228 226 226 227 227 226 227 230 229 228 228 229 229 226 222 222 225 228 228 226 224 220 218 222 231 239 240 237 239 242 242 241 240 238 240 245 248 250
281 279 277 275 274 273 272 270 269 267 265 261 257 255 252 250 248 247 245 244 243 243 243 242 241 241 241 240 240 238 237 238 240 240 238 237 237 235 234 234 234 234 234 233 230 229 230 230 229 228 228 226 227 228 227 225 227 230 229 228 229 230 230 228 224 224 226 227 228 230 229 225 223 226 231 236 238 238 240 241 241 240 238 236 238 242 246 248
284 282 280 278 276 275 273 271 269 268 266 264 261 257 253 250 248 246 245 244 242 242 242 241 240 239 239 239 239 238 236 236 238 239 238 236 236 235 234 233 232 232 232 232 231 230 231 231 230 228 227 227 228 228 227 226 228 230 230 230 230 231 231 230 227 227 227 225 227 231 231 229 227 227 227 230 235 241 244 243 240 238 238 237 237 241 244 245
289 286 283 281 278 276 273 271 269 267 266 264 263 260 256 252 248 246 244 243 241 240 240 240 239 239 238 237 237 237 236 235 236 237 237 236 235 235 235 234 233 233 233 232 231 231 232 232 231 229 228 228 229 229 228 228 230 232 232 231 232 232 233 232 229 228 226 223 225 230 231 231 229 227 226 229 233 238 241 242 241 239 238 239 240 241 243 243
293 290 287 284 281 278 275 272 269 266 264 263 261 260 258 255 250 246 244 242 240 239 239 239 238 237 237 236 236 236 235 235 234 235 236 236 235 235 235 235 234 233 232 232 231 231 231 232 231 230 229 229 229 231 230 230 231 233 234 234 234 235 235 234 233 230 226 224 226 228 227 225 226 227 226 228 232 234 238 243 244 242 240 240 240 242 243 244
298 294 290 286 283 280 277 273 270 267 264 261 259 258 257 256 253 248 245 242 239 238 237 237 237 236 236 235 234 234 234 234 234 233 234 235 235 235 235 234 233 232 230 230 229 229 230 231 231 230 231 231 231 231 231 230 231 231 232 233 233 234 235 234 233 230 226 224 226 226 224 220 221 226 226 226 230 234 238 242 244 245 242 239 239 240 242 245
303 298 294 289 286 282 279 276 273 270 266 262 259 256 255 254 252 250 246 242 239 236 235 235 235 235 234 233 233 233 233 234 233 232 232 233 234 234 233 233 233 232 230 229 229 228 228 229 230 229 229 229 229 230 230 230 230 231 232 232 232 234 234 233 232 229 225 224 225 225 223 220 221 226 227 228 231 236 238 241 243 244 244 240 238 237 239 243
306 301 297 294 290 286 282 278 275 272 268 265 261 258 255 253 251 249 247 243 240 236 234 233 233 233 232 232 232 232 232 232 233 232 231 231 232 232 232 232 232 232 230 229 229 227 226 227 228 228 228 227 227 228 229 230 230 231 232 232 233 233 233 232 231 229 227 226 228 227 224 222 224 229 232 232 233 236 239 241 243 244 245 243 239 236 237 240
309 304 301 299 296 293 288 283 279 275 271 267 264 260 257 254 251 249 247 244 241 237 234 232 231 231 231 230 230 230 230 231 231 232 231 230 230 231 231 231 231 231 231 230 229 227 226 226 227 228 228 229 228 228 228 228 228 229 229 228 229 231 231 231 231 230 228 227 229 229 226 225 228 232 236 236 235 237 240 242 244 246 246 246 244 239 237 238
311 307 305 303 301 298 293 288 284 280 276 272 268 264 260 256 253 250 247 244 242 238 235 232 229 228 229 229 228 228 229 230 230 231 231 230 229 229 229 230 230 230 230 230 229 227 225 225 227 227 226 227 229 229 229 228 228 228 228 227 228 230 230 230 231 232 231 229 230 230 227 226 229 234 237 237 235 236 238 241 244 246 246 247 246 242 238 238
313 309 307 306 305 301 296 292 289 285 280 277 273 269 264 259 255 251 248 245 242 239 236 233 229 227 227 227 227 226 227 228 229 229 230 229 229 228 228 228 229 229 229 229 228 227 224 223 226 226 225 225 227 228 229 230 230 230 230 229 230 231 230 230 230 230 229 228 229 230 227 225 228 233 235 236 235 235 237 239 242 244 244 245 246 244 241 240
316 312 309 308 307 304 300 297 293 290 286 282 278 273 269 264 258 253 249 246 243 239 237 234 231 227 225 225 226 226 225 226 227 228 229 229 228 228 227 227 227 227 228 228 227 226 224 222 224 226 225 225 227 227 228 229 231 231 232 232 233 233 233 233 231 230 229 227 227 229 227 225 227 231 234 234 234 235 236 237 240 242 242 243 246 246 244 243
320 316 314 313 312 309 305 302 297 293 290 286 282 277 272 268 263 257 252 247 243 240 237 234 231 228 225 224 224 225 224 224 225 227 228 228 228 227 226 226 226 226 226 227 226 225 224 222 223 225 224 225 226 226 226 227 228 229 230 231 232 233 233 234 234 234 234 232 231 231 229 226 228 231 234 235 235 236 237 238 240 241 241 243 247 248 246 245
323 320 318 317 316 313 310 306 301 297 293 289 285 281 277 272 266 261 256 250 244 240 237 235 232 229 226 223 222 223 223 223 223 225 226 227 227 227 226 225 225 225 224 225 225 224 223 222 223 225 224 224 226 225 225 226 227 228 228 230 230 230 231 231 231 233 234 233 233 233 231 230 231 233 235 236 236 236 237 238 239 240 241 242 245 248 248 247
326 323 320 319 318 316 314 310 305 300 296 292 288 284 280 276 270 263 258 253 245 240 237 234 232 230 227 224 222 222 222 222 222 223 225 225 226 226 226 225 224 224 223 223 223 222 222 221 222 224 224 223 224 224 223 224 225 226 227 228 229 230 230 230 229 229 230 229 230 230 230 231 233 233 236 237 236 236 236 237 239 240 242 243 245 248 250 249
327 324 322 322 321 319 317 314 310 306 301 296 292 287 282 278 273 266 259 254 248 240 235 232 231 229 227 225 222 221 221 222 221 221 223 224 224 225 225 224 224 223 223 222 222 221 220 220 221 223 224 222 222 223 222 222 223 224 225 226 228 228 229 229 228 228 228 227 227 227 227 230 231 231 233 235 235 235 236 237 239 240 242 244 245 248 250 251
328 326 324 323 323 322 321 319 316 313 308 304 299 293 287 282 276 269 260 254 249 242 236 231 230 229 227 225 223 221 220 221 221 221 221 222 223 223 224 224 223 223 222 221 221 220 219 218 219 222 224 223 222 222 222 223 222 223 223 225 226 227 228 228 229 230 229 229 229 228 229 232 232 231 232 234 233 234 235 236 238 239 241 244 246 247 250 252
329 328 326 324 325 325 324 323 320 318 314 310 306 300 294 288 281 273 264 256 249 243 237 231 229 229 227 225 224 222 221 220 220 220 220 221 222 221 222 223 222 221 221 221 220 219 218 217 217 220 223 224 224 224 224 224 224 223 223 224 226 227 228 228 229 230 230 231 231 230 231 234 234 233 234 235 234 234 234 234 236 237 239 242 244 246 249 251
330 330 328 326 325 325 325 325 323 321 319 315 310 305 299 293 285 277 268 260 251 244 238 233 228 227 226 224 224 223 221 220 220 220 220 221 221 220 221 221 221 220 220 220 220 218 216 216 216 218 222 224 225 225 224 225 225 224 224 224 225 226 227 228 229 229 230 231 231 230 233 236 235 234 235 236 236 235 235 235 236 237 239 241 242 245 247 249
331 332 331 329 329 328 329 330 328 325 324 321 316 310 304 298 290 280 271 263 255 247 240 235 230 226 224 224 223 223 222 220 219 219 220 220 221 220 220 220 220 219 218 218 219 217 215 215 215 217 220 222 223 224 224 224 225 224 224 224 224 225 226 227 227 227 229 230 229 230 233 236 236 235 235 236 236 235 236 237 238 239 241 243 244 245 247 248
333 334 335 335 335 336 335 335 334 333 331 328 322 315 309 302 295 285 274 264 258 251 243 237 232 227 224 223 223 223 223 221 219 219 219 220 220 220 219 219 219 218 217 217 218 217 215 214 213 215 219 221 222 223 223 223 224 224 223 223 224 224 225 226 225 226 226 227 228 229 231 234 235 234 234 235 236 235 236 238 240 241 242 244 245 246 247 247
336 337 339 342 344 345 344 342 342 340 337 333 328 321 314 306 298 289 278 267 258 253 247 240 234 229 225 223 223 223 222 221 219 219 219 219 219 219 219 219 218 217 216 215 216 216 214 213 211 213 217 219 221 221 222 222 222 223 223 223 223 224 224 225 225 225 224 224 226 229 230 233 235 235 234 235 236 236 237 238 239 239 240 242 244 245 245 245
339 341 344 348 351 353 353 350 348 344 340 337 333 327 320 312 302 292 281 271 260 253 250 243 236 231 226 223 222 222 221 220 219 219 218 218 219 218 218 218 217 215 214 214 215 215 214 212 210 211 215 218 219 220 221 220 221 222 222 222 222 223 223 224 223 223 224 223 225 227 229 232 235 236 235 235 236 236 237 238 239 239 238 239 241 242 242 242
343 346 350 354 356 358 358 356 352 349 346 343 339 334 327 320 311 299 286 275 262 251 249 247 239 231 227 224 222 222 222 221 220 219 218 217 218 217 217 218 216 214 212 212 213 213 213 212 209 209 213 216 218 219 220 220 220 220 221 221 221 221 222 223 223 222 223 224 224 225 227 230 234 235 235 235 235 235 236 238 239 239 237 236 237 239 241 241
Height
10943 10943 10944 10944 10945 10945 10946 10946 10947 10948 10948 10949 10950 10950 10951 10952 10952 10953 10953 10954 10954 10955 10956 10956 10957 10958 10958 10959 10959 10960 10960 10960 10960 10960 10961 10961 10962 10963 10964 10965 10966 10968 10970 10971 10973 10974 10976 10977 10979 10981 10982 10983 10984 10985 10987 10989 10990 10992 10993 10995 10996 10997 10999 10999 11000 11001 11001 11002 11002 11003 11004 11004 11004 11004 11004 11003 11003 11003 11002 11002 11001 11000 10999 10997 10995 10993 10990 10987
10938 10939 10940 10940 10941 10941 10942 10942 10943 10944 10945 10945 10946 10947 10948 10948 10949 10950 10950 10951 10951 10951 10952 10953 10954 10955 10956 10957 10957 10958 10958 10958 10958 10959 10960 10959 10960 10960 10961 10963 10964 10965 10967 10968 10970 10971 10973 10974 10976 10978 10980 10981 10981 10982 10984 10986 10988 10989 10991 10993 10994 10995 10997 10998 10999 10999 10999 11000 11000 11001 11002 11002 11003 11003 11003 11003 11002 11002 11001 11001 10999 10999 10998 10996 10994 10992 10990 10987
10934 10935 10935 10936 10937 10937 10938 10938 10939 10940 10941 10941 10943 10943 10944 10945 10946 10946 10947 10947 10948 10948 10949 10950 10951 10952 10953 10954 10955 10955 10956 10956 10956 10957 10958 10958 10958 10959 10960 10961 10961 10962 10964 10965 10966 10968 10970 10971 10973 10975 10977 10978 10978 10980 10982 10983 10985 10986 10988 10991 10992 10992 10994 10995 10997 10997 10997 10998 10998 11000 11001 11001 11002 11002 11002 11002 11001 11001 11001 11000 10999 10998 10997 10995 10994 10992 10989 10987
10929 10930 10931 10931 10932 10933 10933 10934 10935 10936 10936 10937 10938 10939 10940 10941 10942 10943 10943 10944 10944 10944 10945 10946 10947 10949 10950 10950 10952 10953 10953 10954 10953 10955 10957 10956 10956 10957 10957 10958 10958 10959 10960 10962 10963 10964 10966 10968 10969 10972 10974 10974 10975 10977 10979 10980 10983 10984 10985 10988 10990 10990 10991 10993 10995 10995 10995 10996 10997 10998 10999 10999 11000 11000 11000 11000 11000 11000 11000 10999 10998 10998 10997 10995 10993 10991 10989 10986
10924 10925 10925 10926 10927 10928 10929 10929 10930 10931 10932 10933 10934 10935 10936 10937 10938 10939 10939 10940 10941 10941 10941 10942 10943 10945 10946 10947 10948 10949 10951 10952 10950 10952 10954 10954 10954 10954 10955 10955 10955 10956 10957 10958 10959 10960 10962 10964 10966 10968 10970 10971 10972 10973 10976 10979 10980 10982 10983 10986 10988 10988 10989 10990 10992 10993 10994 10994 10995 10997 10997 10997 10998 10998 10999 10999 10998 10998 10999 10999 10998 10997 10996 10994 10993 10991 10988 10986
10919 10919 10920 10921 10921 10922 10923 10924 10925 10926 10927 10928 10929 10930 10932 10932 10933 10934 10935 10936 10936 10937 10937 10938 10939 10941 10942 10943 10944 10946 10948 10949 10947 10948 10952 10952 10952 10952 10952 10952 10953 10953 10955 10956 10955 10957 10959 10960 10962 10964 10965 10967 10968 10971 10974 10976 10977 10979 10980 10982 10984 10986 10987 10988 10989 10991 10992 10992 10993 10995 10995 10995 10996 10996 10997 10997 10997 10997 10998 10998 10997 10996 10995 10994 10992 10990 10988 10986
10913 10914 10914 10915 10916 10917 10917 10918 10920 10920 10921 10922 10924 10925 10927 10928 10928 10929 10930 10931 10932 10933 10933 10933 10934 10936 10937 10939 10940 10942 10944 10944 10944 10945 10948 10949 10949 10949 10949 10950 10951 10951 10953 10953 10953 10954 10955 10956 10958 10960 10961 10962 10965 10968 10971 10972 10974 10975 10976 10978 10981 10983 10985 10986 10986 10987 10989 10989 10991 10992 10992 10992 10993 10994 10995 10995 10996 10996 10996 10997 10996 10995 10995 10993 10992 10990 10988 10986
10907 10908 10908 10909 10910 10910 10911 10912 10914 10915 10916 10917 10918 10920 10921 10922 10923 10924 10925 10926 10927 10928 10928 10929 10930 10931 10932 10934 10936 10938 10940 10940 10941 10941 10943 10946 10946 10946 10946 10947 10948 10949 10950 10950 10950 10951 10951 10953 10955 10956 10958 10960 10962 10964 10966 10968 10970 10971 10972 10974 10978 10980 10982 10984 10984 10984 10985 10986 10988 10990 10990 10990 10991 10993 10994 10994 10994 10995 10995 10996 10995 10994 10994 10993 10991 10989 10987 10985
10901 10901 10902 10903 10903 10904 10905 10906 10907 10908 10910 10911 10912 10913 10915 10916 10918 10919 10919 10920 10922 10923 10923 10924 10925 10926 10927 10929 10931 10934 10935 10935 10937 10937 10938 10941 10942 10942 10943 10944 10945 10947 10948 10947 10948 10948 10949 10951 10952 10953 10955 10956 10957 10959 10961 10963 10966 10969 10970 10972 10975 10977 10979 10981 10983 10982 10982 10983 10985 10987 10987 10989 10990 10991 10992 10992 10993 10994 10994 10994 10994 10994 10993 10992 10991 10989 10987 10985
10894 10895 10895 10896 10896 10897 10898 10899 10900 10902 10903 10904 10905 10907 10909 10910 10911 10913 10913 10914 10916 10917 10918 10918 10919 10920 10921 10923 10925 10929 10929 10930 10933 10934 10934 10936 10938 10939 10940 10941 10942 10944 10945 10945 10945 10945 10947 10950 10950 10951 10951 10951 10953 10955 10957 10959 10963 10966 10967 10969 10971 10973 10975 10978 10980 10980 10981 10981 10982 10984 10985 10986 10988 10989 10990 10990 10991 10992 10993 10993 10993 10993 10992 10992 10990 10989 10987 10985
10887 10887 10888 10888 10889 10890 10891 10891 10893 10894 10896 10897 10898 10900 10902 10903 10904 10906 10907 10908 10910 10911 10912 10913 10913 10914 10915 10917 10920 10924 10924 10924 10927 10929 10929 10931 10933 10935 10936 10937 10939 10940 10942 10942 10941 10942 10945 10947 10948 10948 10948 10948 10950 10952 10954 10956 10959 10961 10963 10965 10967 10968 10971 10974 10976 10977 10979 10980 10980 10981 10982 10983 10985 10987 10988 10988 10988 10990 10991 10992 10992 10992 10991 10991 10990 10988 10986 10985
10880 10880 10880 10880 10881 10882 10883 10883 10885 10886 10888 10889 10891 10892 10894 10896 10897 10898 10900 10901 10903 10905 10906 10907 10907 10907 10908 10909 10914 10919 10918 10918 10921 10923 10925 10926 10929 10931 10932 10933 10935 10937 10937 10938 10939 10940 10943 10945 10946 10945 10945 10947 10947 10949 10951 10953 10954 10956 10959 10961 10962 10964 10967 10969 10972 10974 10976 10978 10978 10978 10979 10981 10982 10985 10986 10986 10987 10988 10989 10990 10991 10991 10990 10990 10989 10987 10986 10985
10872 10872 10872 10872 10873 10874 10875 10875 10876 10878 10879 10881 10883 10884 10886 10888 10889 10890 10892 10894 10895 10898 10899 10900 10900 10901 10901 10901 10908 10913 10912 10912 10913 10916 10921 10924 10925 10927 10928 10929 10930 10932 10933 10934 10936 10937 10940 10942 10942 10942 10944 10944 10944 10947 10949 10950 10950 10952 10954 10956 10958 10960 10962 10965 10968 10971 10972 10974 10975 10975 10977 10978 10981 10983 10984 10984 10985 10987 10988 10989 10989 10989 10989 10989 10988 10987 10985 10985
10864 10864 10864 10864 10864 10865 10867 10867 10867 10869 10871 10873 10874 10876 10878 10879 10881 10882 10884 10885 10888 10890 10892 10893 10894 10895 10894 10893 10902 10907 10905 10904 10906 10911 10918 10920 10920 10920 10922 10924 10925 10927 10928 10931 10933 10934 10936 10938 10939 10941 10942 10941 10942 10945 10947 10947 10947 10949 10951 10952 10954 10956 10959 10962 10965 10967 10968 10970 10972 10973 10974 10976 10979 10981 10982 10983 10984 10985 10987 10987 10987 10988 10988 10988 10988 10986 10985 10984
10856 10855 10856 10856 10856 10856 10858 10859 10859 10860 10862 10863 10865 10868 10869 10871 10872 10873 10875 10877 10880 10883 10884 10886 10887 10889 10886 10885 10896 10901 10897 10898 10900 10906 10911 10913 10913 10913 10915 10918 10919 10921 10923 10927 10929 10930 10933 10935 10936 10937 10937 10938 10941 10943 10945 10945 10945 10947 10948 10949 10950 10953 10956 10958 10961 10963 10965 10966 10969 10970 10971 10973 10976 10978 10979 10981 10982 10984 10985 10986 10986 10986 10987 10987 10987 10986 10985 10984
10846 10846 10846 10847 10848 10848 10849 10850 10850 10851 10853 10854 10856 10859 10860 10862 10863 10863 10865 10867 10872 10875 10877 10878 10879 10881 10878 10877 10887 10894 10891 10891 10894 10899 10902 10904 10907 10907 10909 10912 10914 10915 10918 10921 10924 10927 10930 10931 10931 10933 10935 10938 10939 10940 10942 10943 10943 10944 10945 10946 10948 10950 10953 10955 10957 10960 10962 10963 10966 10967 10968 10971 10973 10975 10977 10979 10981 10983 10984 10984 10984 10984 10985 10986 10986 10985 10985 10984
10836 10836 10836 10836 10838 10838 10838 10840 10841 10841 10843 10845 10847 10849 10851 10853 10853 10853 10854 10857 10864 10868 10869 10869 10870 10872 10870 10869 10878 10886 10886 10885 10888 10892 10893 10895 10901 10903 10904 10905 10907 10910 10913 10918 10921 10924 10926 10926 10927 10930 10933 10935 10936 10937 10940 10941 10938 10938 10940 10943 10946 10948 10950 10952 10955 10957 10958 10961 10963 10965 10966 10968 10971 10973 10975 10977 10979 10981 10982 10983 10983 10983 10984 10984 10985 10985 10985 10984
10824 10824 10824 10824 10827 10827 10827 10829 10830 10831 10833 10834 10837 10839 10842 10843 10844 10843 10842 10849 10856 10859 10860 10861 10862 10862 10861 10861 10868 10876 10880 10879 10881 10883 10884 10887 10893 10897 10898 10899 10902 10906 10910 10915 10917 10919 10920 10920 10923 10927 10930 10932 10933 10934 10936 10933 10931 10934 10938 10942 10944 10947 10948 10950 10952 10955 10957 10959 10962 10963 10964 10965 10968 10971 10973 10976 10978 10980 10981 10981 10982 10982 10983 10983 10983 10984 10984 10984
10812 10811 10811 10811 10814 10815 10815 10816 10819 10820 10821 10823 10826 10829 10831 10833 10835 10832 10831 10841 10847 10848 10851 10852 10853 10852 10850 10853 10859 10866 10874 10875 10875 10875 10875 10878 10885 10890 10892 10894 10897 10901 10906 10909 10910 10912 10914 10915 10920 10925 10925 10926 10926 10927 10927 10926 10929 10933 10938 10941 10943 10945 10947 10948 10951 10953 10955 10958 10961 10961 10962 10963 10966 10968 10972 10974 10976 10978 10979 10980 10981 10981 10982 10982 10982 10982 10983 10983
10799 10799 10798 10797 10800 10802 10801 10803 10806 10807 10808 10810 10814 10817 10820 10822 10823 10821 10820 10831 10837 10836 10841 10844 10842 10841 10840 10844 10852 10859 10864 10868 10870 10868 10865 10869 10877 10881 10885 10889 10892 10895 10900 10900 10902 10906 10909 10914 10918 10917 10915 10917 10919 10922 10923 10925 10928 10933 10937 10939 10941 10943 10945 10947 10949 10951 10953 10956 10959 10960 10961 10962 10964 10966 10970 10973 10975 10977 10977 10978 10979 10980 10981 10981 10981 10981 10982 10982
10786 10786 10785 10783 10785 10788 10788 10788 10791 10794 10795 10796 10800 10804 10808 10810 10811 10809 10808 10818 10826 10827 10830 10834 10832 10831 10830 10836 10847 10851 10853 10858 10861 10859 10857 10860 10867 10873 10878 10883 10886 10889 10889 10889 10894 10901 10907 10913 10911 10906 10907 10912 10917 10920 10921 10923 10926 10930 10934 10937 10939 10940 10942 10944 10947 10949 10951 10954 10957 10959 10960 10960 10962 10964 10968 10971 10973 10974 10976 10977 10978 10979 10980 10981 10980 10981 10981 10981
10773 10772 10771 10769 10769 10773 10774 10774 10776 10779 10781 10782 10785 10789 10793 10796 10797 10797 10796 10801 10812 10818 10819 10821 10822 10821 10820 10826 10838 10843 10844 10846 10847 10848 10850 10852 10858 10864 10868 10874 10879 10879 10876 10881 10890 10897 10906 10906 10897 10896 10902 10908 10912 10916 10918 10919 10923 10927 10931 10934 10936 10937 10939 10942 10945 10947 10949 10951 10955 10958 10959 10958 10959 10962 10966 10969 10971 10972 10974 10975 10976 10977 10979 10979 10980 10980 10981 10980
10759 10758 10758 10754 10753 10756 10759 10759 10761 10763 10766 10768 10771 10774 10778 10780 10782 10784 10785 10785 10794 10805 10807 10808 10810 10811 10811 10815 10827 10835 10835 10833 10834 10838 10841 10844 10849 10852 10856 10864 10870 10868 10869 10879 10885 10892 10898 10890 10882 10891 10899 10902 10907 10911 10913 10915 10919 10924 10927 10930 10931 10932 10935 10938 10940 10943 10945 10947 10951 10955 10956 10957 10957 10959 10963 10967 10969 10969 10972 10974 10974 10976 10977 10978 10979 10980 10981 10980
10745 10743 10742 10740 10737 10739 10742 10743 10745 10746 10749 10753 10755 10758 10761 10765 10767 10769 10772 10772 10777 10787 10792 10795 10798 10799 10801 10804 10813 10824 10825 10822 10822 10825 10831 10836 10838 10841 10846 10852 10857 10860 10866 10872 10876 10883 10885 10875 10878 10890 10894 10896 10901 10905 10909 10912 10916 10919 10921 10924 10924 10926 10930 10932 10935 10939 10942 10944 10949 10953 10955 10957 10957 10957 10959 10964 10967 10967 10969 10971 10972 10974 10975 10976 10978 10979 10980 10980
10730 10727 10726 10725 10721 10721 10725 10727 10728 10728 10732 10736 10738 10740 10744 10749 10752 10753 10757 10759 10763 10769 10773 10779 10785 10787 10791 10792 10799 10811 10814 10811 10808 10811 10821 10826 10827 10831 10836 10841 10848 10854 10860 10863 10868 10875 10873 10867 10876 10886 10887 10892 10897 10901 10905 10908 10911 10915 10916 10916 10915 10918 10923 10928 10933 10936 10939 10943 10946 10950 10954 10956 10956 10954 10955 10960 10964 10964 10966 10968 10971 10973 10974 10975 10976 10978 10979 10979
10715 10711 10709 10709 10706 10705 10707 10709 10710 10711 10715 10718 10720 10723 10727 10731 10735 10737 10741 10744 10748 10753 10756 10762 10768 10773 10780 10782 10786 10798 10802 10798 10795 10801 10812 10814 10816 10821 10826 10832 10840 10845 10850 10854 10859 10866 10863 10862 10872 10880 10882 10888 10892 10896 10900 10902 10906 10911 10908 10904 10906 10913 10918 10925 10930 10932 10936 10938 10941 10947 10951 10953 10954 10952 10951 10957 10961 10962 10963 10966 10968 10971 10972 10973 10974 10976 10977 10978
10700 10697 10692 10692 10692 10690 10690 10691 10692 10695 10697 10699 10703 10707 10710 10714 10718 10721 10725 10728 10733 10738 10740 10746 10749 10755 10767 10771 10775 10783 10786 10785 10784 10790 10801 10805 10809 10814 10819 10827 10832 10835 10839 10843 10854 10862 10857 10857 10868 10874 10877 10882 10887 10892 10892 10893 10900 10900 10894 10894 10902 10909 10914 10920 10925 10928 10931 10931 10937 10945 10948 10950 10953 10951 10950 10954 10959 10960 10961 10963 10965 10967 10969 10972 10973 10974 10975 10976
10686 10683 10678 10676 10676 10676 10675 10674 10674 10677 10679 10681 10685 10689 10693 10697 10700 10705 10709 10711 10717 10721 10724 10731 10733 10738 10750 10757 10762 10767 10770 10772 10771 10778 10791 10796 10800 10807 10813 10820 10824 10826 10827 10835 10852 10855 10845 10850 10861 10862 10866 10875 10880 10880 10878 10885 10891 10885 10883 10891 10899 10902 10907 10914 10921 10925 10925 10927 10935 10943 10945 10948 10951 10949 10948 10951 10956 10959 10957 10958 10962 10964 10967 10970 10971 10972 10973 10974
10671 10669 10665 10661 10660 10660 10660 10659 10658 10659 10662 10664 10666 10670 10676 10680 10683 10689 10692 10695 10702 10705 10707 10714 10718 10723 10732 10739 10746 10753 10758 10758 10756 10765 10778 10782 10785 10794 10802 10807 10810 10812 10815 10826 10841 10838 10834 10842 10848 10849 10859 10868 10869 10866 10870 10881 10882 10874 10878 10889 10892 10895 10901 10910 10918 10921 10921 10926 10934 10938 10942 10947 10948 10948 10948 10950 10953 10953 10952 10954 10957 10961 10965 10968 10969 10970 10971 10972
10658 10654 10651 10647 10645 10645 10646 10645 10643 10643 10644 10646 10648 10651 10656 10661 10666 10671 10675 10680 10686 10689 10690 10695 10702 10708 10715 10722 10728 10737 10745 10745 10743 10751 10762 10767 10772 10780 10788 10789 10791 10797 10804 10816 10826 10827 10827 10831 10835 10843 10854 10858 10857 10858 10865 10874 10870 10865 10874 10884 10886 10891 10896 10905 10914 10915 10919 10929 10933 10933 10937 10942 10946 10947 10949 10949 10946 10945 10947 10950 10954 10958 10963 10966 10968 10968 10969 10970
10646 10641 10637 10633 10631 10630 10630 10630 10629 10628 10628 10628 10629 10632 10636 10642 10647 10652 10658 10664 10668 10671 10674 10678 10685 10692 10697 10705 10712 10719 10729 10732 10731 10736 10744 10751 10757 10763 10768 10770 10775 10785 10794 10805 10815 10818 10818 10820 10829 10840 10845 10847 10849 10852 10860 10866 10862 10862 10872 10879 10881 10886 10891 10900 10909 10913 10922 10932 10930 10928 10932 10938 10944 10947 10947 10945 10941 10940 10943 10945 10950 10956 10960 10964 10966 10967 10967 10968
10633 10627 10623 10619 10617 10614 10613 10613 10612 10612 10613 10612 10612 10614 10617 10622 10628 10634 10640 10644 10648 10655 10658 10660 10668 10674 10679 10689 10696 10702 10710 10714 10718 10722 10726 10734 10740 10746 10751 10758 10770 10782 10789 10799 10807 10809 10809 10815 10825 10832 10835 10839 10843 10846 10854 10860 10859 10862 10869 10874 10878 10882 10887 10897 10906 10913 10924 10929 10924 10924 10929 10936 10942 10943 10943 10942 10938 10937 10937 10939 10947 10954 10958 10962 10964 10965 10966 10966
10619 10613 10609 10605 10602 10599 10597 10596 10595 10595 10596 10597 10597 10597 10598 10602 10609 10616 10621 10624 10629 10638 10640 10642 10651 10657 10663 10673 10679 10684 10691 10695 10702 10707 10711 10718 10726 10733 10741 10751 10764 10774 10783 10790 10795 10798 10802 10807 10815 10824 10829 10835 10840 10843 10851 10857 10858 10860 10865 10871 10876 10879 10886 10896 10904 10910 10919 10921 10918 10919 10925 10933 10937 10936 10937 10937 10932 10931 10933 10937 10945 10951 10956 10960 10961 10963 10964 10964
10605 10599 10594 10590 10587 10585 10582 10580 10580 10579 10580 10581 10581 10581 10581 10584 10589 10596 10602 10605 10612 10620 10623 10626 10633 10639 10647 10656 10662 10668 10673 10678 10684 10691 10697 10703 10712 10720 10729 10738 10746 10757 10769 10774 10777 10786 10794 10799 10811 10823 10828 10832 10836 10840 10846 10849 10850 10853 10858 10863 10868 10875 10883 10891 10895 10901 10908 10910 10909 10912 10922 10931 10932 10928 10928 10928 10927 10929 10933 10937 10942 10947 10953 10957 10959 10961 10961 10962
10593 10585 10581 10577 10575 10572 10569 10567 10566 10564 10565 10565 10565 10565 10565 10567 10571 10576 10582 10587 10593 10601 10606 10610 10614 10621 10630 10638 10645 10652 10657 10661 10666 10675 10683 10689 10697 10705 10714 10722 10730 10742 10754 10758 10763 10776 10786 10794 10805 10812 10814 10819 10826 10833 10835 10836 10841 10847 10849 10854 10866 10874 10877 10880 10882 10889 10897 10899 10902 10910 10920 10926 10923 10918 10919 10923 10926 10928 10932 10935 10939 10943 10948 10953 10957 10958 10959 10959
10580 10573 10569 10565 10563 10561 10558 10555 10553 10551 10551 10550 10551 10551 10551 10553 10556 10559 10564 10569 10574 10581 10587 10592 10597 10603 10612 10621 10629 10635 10641 10645 10649 10657 10667 10674 10682 10690 10699 10709 10717 10728 10738 10744 10754 10767 10779 10786 10790 10794 10801 10809 10818 10822 10821 10827 10836 10839 10840 10854 10867 10865 10861 10867 10873 10881 10889 10894 10901 10909 10916 10919 10917 10914 10915 10921 10926 10928 10930 10932 10935 10938 10942 10948 10953 10955 10956 10957
10568 10561 10557 10555 10552 10549 10546 10543 10541 10539 10538 10537 10537 10537 10536 10539 10542 10544 10548 10551 10556 10563 10567 10573 10580 10587 10594 10604 10613 10619 10624 10629 10633 10640 10650 10659 10667 10675 10685 10695 10703 10714 10724 10733 10745 10758 10772 10778 10777 10785 10799 10805 10809 10809 10809 10817 10824 10824 10834 10849 10850 10843 10847 10860 10867 10874 10884 10894 10900 10904 10910 10915 10915 10912 10913 10918 10924 10926 10927 10929 10931 10933 10938 10942 10946 10949 10952 10953
10559 10551 10547 10545 10543 10539 10535 10532 10530 10528 10525 10524 10525 10524 10523 10526 10529 10530 10533 10535 10539 10545 10549 10555 10564 10571 10577 10586 10595 10603 10608 10612 10618 10625 10633 10643 10651 10659 10670 10680 10689 10701 10711 10721 10733 10747 10763 10770 10767 10775 10788 10792 10795 10797 10799 10807 10813 10819 10831 10836 10830 10832 10846 10857 10863 10871 10883 10891 10893 10896 10904 10911 10912 10910 10909 10913 10920 10922 10923 10925 10926 10929 10934 10936 10939 10943 10947 10948
10552 10543 10539 10537 10535 10530 10525 10522 10520 10517 10515 10514 10514 10512 10511 10514 10516 10517 10518 10520 10524 10529 10532 10539 10548 10555 10562 10569 10577 10586 10592 10597 10603 10610 10617 10626 10635 10645 10656 10665 10676 10687 10696 10708 10721 10735 10751 10759 10756 10762 10775 10778 10779 10784 10793 10805 10814 10820 10824 10824 10825 10834 10843 10849 10856 10864 10873 10880 10883 10887 10896 10905 10907 10903 10900 10905 10913 10916 10919 10921 10922 10925 10929 10930 10932 10936 10941 10943
10545 10536 10530 10529 10527 10522 10517 10514 10511 10508 10505 10504 10503 10501 10500 10501 10503 10503 10504 10507 10510 10514 10518 10524 10531 10539 10548 10554 10560 10568 10577 10584 10589 10594 10602 10610 10620 10630 10641 10651 10661 10673 10684 10696 10708 10722 10738 10748 10746 10750 10762 10767 10766 10777 10793 10803 10807 10812 10818 10821 10827 10835 10841 10845 10852 10857 10863 10870 10875 10879 10889 10899 10899 10892 10891 10898 10906 10910 10914 10916 10918 10922 10925 10926 10926 10930 10934 10937
10539 10529 10521 10519 10517 10514 10510 10507 10503 10499 10498 10495 10492 10490 10490 10490 10490 10491 10492 10494 10498 10501 10505 10508 10514 10523 10532 10539 10545 10552 10562 10571 10575 10579 10587 10596 10604 10614 10626 10638 10648 10660 10671 10682 10696 10711 10725 10736 10737 10738 10750 10757 10760 10774 10788 10790 10792 10800 10808 10813 10820 10829 10834 10837 10846 10854 10859 10867 10871 10875 10885 10892 10888 10882 10883 10891 10900 10905 10909 10912 10915 10918 10921 10922 10922 10923 10928 10931
10533 10525 10517 10512 10508 10505 10502 10499 10495 10492 10490 10487 10484 10481 10480 10480 10479 10479 10480 10483 10487 10489 10492 10495 10501 10508 10516 10523 10530 10537 10545 10554 10559 10563 10572 10581 10589 10599 10612 10625 10635 10646 10658 10668 10682 10698 10712 10726 10728 10728 10740 10752 10756 10766 10775 10777 10784 10791 10797 10804 10809 10815 10820 10827 10841 10851 10854 10861 10866 10871 10880 10882 10877 10877 10880 10887 10896 10901 10904 10907 10910 10913 10916 10918 10917 10917 10921 10925
10526 10520 10514 10508 10503 10498 10494 10491 10487 10484 10482 10479 10476 10473 10471 10470 10470 10469 10470 10472 10475 10478 10480 10484 10489 10494 10501 10509 10517 10523 10528 10536 10543 10548 10557 10566 10575 10586 10598 10611 10622 10633 10645 10655 10669 10685 10700 10715 10720 10720 10731 10743 10747 10752 10758 10765 10772 10778 10787 10794 10797 10805 10814 10824 10837 10840 10841 10850 10856 10864 10871 10869 10868 10875 10877 10881 10890 10895 10898 10902 10905 10908 10910 10911 10912 10912 10914 10918
10520 10515 10509 10504 10499 10493 10488 10483 10480 10477 10474 10472 10469 10466 10463 10462 10460 10460 10461 10461 10464 10467 10470 10472 10475 10480 10487 10495 10502 10508 10513 10520 10528 10536 10543 10552 10562 10572 10583 10597 10609 10621 10633 10643 10657 10674 10687 10702 10711 10711 10716 10725 10728 10732 10739 10749 10757 10764 10774 10781 10787 10799 10809 10816 10824 10824 10829 10841 10848 10856 10861 10856 10859 10868 10870 10874 10884 10889 10893 10897 10900 10903 10904 10905 10907 10908 10908 10911
10515 10510 10505 10500 10496 10489 10483 10477 10472 10468 10466 10464 10461 10458 10456 10455 10453 10451 10452 10452 10454 10457 10460 10462 10464 10468 10475 10481 10487 10493 10499 10506 10514 10523 10531 10538 10547 10558 10569 10582 10595 10608 10620 10633 10646 10661 10674 10690 10700 10699 10700 10708 10713 10719 10729 10739 10746 10755 10766 10776 10783 10792 10799 10807 10812 10817 10829 10839 10844 10854 10855 10847 10853 10863 10865 10870 10878 10883 10888 10892 10895 10898 10898 10899 10901 10903 10903 10906
10511 10505 10500 10495 10491 10487 10480 10474 10468 10463 10459 10456 10453 10451 10448 10447 10445 10444 10443 10444 10445 10447 10450 10453 10455 10459 10465 10470 10475 10480 10487 10494 10502 10509 10518 10524 10533 10545 10556 10567 10581 10595 10609 10622 10635 10649 10663 10677 10688 10689 10691 10699 10707 10717 10728 10735 10743 10754 10764 10772 10779 10785 10793 10799 10804 10815 10830 10835 10841 10852 10848 10838 10848 10860 10861 10866 10873 10877 10883 10887 10889 10892 10893 10895 10897 10897 10899 10901
10508 10503 10497 10491 10486 10483 10479 10473 10467 10461 10456 10451 10447 10445 10442 10440 10438 10436 10436 10436 10437 10439 10441 10444 10447 10451 10455 10460 10464 10468 10475 10484 10491 10497 10505 10511 10520 10532 10543 10553 10568 10583 10598 10610 10621 10637 10652 10664 10676 10683 10685 10691 10701 10713 10723 10730 10740 10751 10760 10766 10771 10777 10783 10790 10800 10816 10825 10828 10839 10847 10837 10830 10844 10854 10855 10860 10867 10873 10878 10881 10882 10885 10887 10890 10892 10893 10895 10897
10503 10500 10495 10489 10483 10478 10473 10469 10464 10459 10454 10449 10444 10440 10437 10434 10432 10430 10429 10429 10429 10431 10434 10436 10440 10443 10446 10449 10453 10457 10464 10473 10480 10485 10492 10499 10508 10520 10531 10542 10556 10571 10587 10598 10609 10625 10640 10652 10666 10675 10676 10682 10693 10703 10714 10724 10733 10743 10752 10758 10762 10767 10773 10783 10798 10809 10814 10822 10834 10834 10825 10826 10837 10844 10847 10852 10859 10867 10872 10873 10876 10880 10882 10884 10886 10889 10891 10894
10499 10495 10492 10487 10481 10475 10469 10464 10459 10454 10450 10445 10441 10436 10433 10430 10427 10424 10423 10423 10423 10424 10426 10429 10432 10435 10438 10441 10444 10449 10455 10462 10469 10473 10479 10487 10496 10509 10521 10532 10546 10561 10576 10588 10598 10613 10628 10641 10655 10665 10668 10674 10683 10692 10704 10716 10724 10733 10741 10745 10749 10756 10766 10779 10792 10799 10804 10816 10821 10817 10817 10822 10827 10833 10839 10844 10853 10862 10866 10868 10871 10876 10878 10878 10880 10883 10886 10889
10496 10491 10488 10483 10478 10473 10466 10461 10456 10451 10446 10441 10437 10432 10428 10426 10423 10420 10418 10417 10418 10418 10419 10422 10425 10427 10431 10434 10436 10440 10445 10451 10457 10462 10468 10477 10486 10497 10510 10522 10535 10550 10565 10577 10587 10602 10617 10631 10645 10656 10660 10664 10671 10681 10694 10706 10713 10719 10725 10731 10742 10754 10764 10774 10782 10786 10794 10803 10805 10806 10814 10818 10818 10825 10833 10840 10849 10857 10860 10863 10866 10869 10872 10872 10874 10877 10880 10883
10494 10489 10484 10480 10475 10470 10465 10459 10453 10448 10443 10438 10434 10429 10424 10421 10419 10416 10413 10412 10412 10413 10413 10415 10418 10420 10424 10427 10429 10431 10435 10441 10447 10453 10460 10469 10477 10487 10499 10511 10525 10541 10555 10566 10578 10592 10607 10620 10635 10646 10649 10652 10660 10672 10684 10694 10700 10704 10712 10725 10740 10750 10755 10761 10768 10776 10785 10793 10795 10801 10811 10813 10811 10819 10828 10836 10845 10850 10854 10858 10859 10862 10867 10868 10868 10870 10872 10876
10493 10488 10483 10478 10473 10469 10463 10457 10451 10446 10441 10436 10431 10426 10422 10417 10414 10412 10410 10408 10408 10408 10408 10409 10411 10414 10417 10419 10422 10425 10429 10435 10439 10444 10452 10460 10468 10478 10489 10499 10514 10530 10545 10557 10569 10584 10597 10610 10625 10636 10639 10642 10652 10663 10672 10679 10685 10692 10704 10720 10732 10738 10742 10749 10759 10769 10779 10785 10789 10798 10805 10804 10803 10811 10822 10831 10839 10845 10850 10852 10852 10856 10861 10862 10863 10864 10866 10869